STARLINK-4580 (53579 NORAD) Tracking and Keplerian Element Data

This shows tracking and keplerian element data for the satellite.

Feedback or suggestion? Click here.




ElementValue
Catalog53579
NameSTARLINK-4580
Epoch Orbit1461
Epoch Day325.25001157
Epoch Year2022
RAAN60.648
Inclination53.2172
Eccentricity0.0001568
Argument of Perigee46.8232
Mean Anonmoly234.5195
Mean Motion15.08823971
Decay Rate0.0003818
L11 53579U 22101BE 22325.25001157 .00038180 00000+0 24051-2 0 9993
L22 53579 53.2172 60.6480 0001568 46.8232 234.5195 15.08823971 14615



Live tracking and technical data element details for STARLINK-4580 (NORAD 53579). STARLINK-4580 can be tracked NOW for your location showing map with azimuth and elevation plus other details from your city location.







IsCatalogInMostPopularTable: catalog: 53579, numindb: 5
Update: records affected: 1



GetName: 53579 STARLINK-4580

Hit Count: updated at: Thu, 08 Dec 2022 09:19:18 GMT